Weather in Novoshirokinsky

Russia / Zabaykalsky Krai     51°34′33″N   118°38′58″E
temp.,
°C
wind,
m/s
gust,
m/s
humid.,
%
clouds,
%
prec.,
mm/h
press.,
hPa
HPBL,
m
22 june, tue
tue2200:00+11sw119099 0.0 101210
03:00+10wsw119254 0.0 101210
06:00+11sw118856 0.0 101310
09:00+19sw125414 0.0 1012714
12:00+22wsw334078 0.0 10102322
15:00+20wsw245599 0.0 1010709
18:00+21wsw235178 0.0 1010965
21:00+15ssw117719 0.0 101011
23 june, wed
wed2300:00+12ssw118918 0.0 101211
03:00+14ssw1178100 0.0 101110
06:00+14ssw1177100 0.0 101111
09:00+18wnw126888 0.0 1011230
12:00+23nw234476 0.0 10092122
15:00+15sw2596100 5.0 1010229
18:00+15ese1293100 7.0 101061
21:00+14sse119195 7.1 101011
24 june, thu
thu2400:00+12e009397 0.5 101010
03:00+12ssw1195100 1.9 101011
06:00+13e009439 0.7 100910
09:00+16se118799 0.7 1008178
12:00+23ssw135329 0.2 10061455
15:00+22sse126489 2.5 1005657
18:00+13s3797100 15.3 1006285
21:00+12nnw019695 16.6 100510
25 june, fri
fri2500:00+11s009553 0.7 100510
03:00+11sw119469 0.7 100510
06:00+11nne119553 0.0 100510
09:00+17ne118024 0.0 1004342
12:00+23nne22498 0.0 10031569
15:00+24ese234294 0.3 10022187
18:00+23nne34578 0.8 10011277
21:00+16ne11822 0.9 100311
26 june, sat
sat2600:00+13se009211 0.1 100510
03:00+12nnw229375 0.1 100614
06:00+13nnw229294 0.0 100741
09:00+20n256389 0.0 1007567
12:00+23ne3549100 0.0 10061489
15:00+21ne1364100 0.1 1006247
18:00+23nne255199 0.1 10051139
21:00+16n128770 0.5 100712